User: anonymous   Login
Location: Unspecified
(0.0000°N, 0.0000°E)
Time: 06:09:12
(UTC+00:00)
Language:

NOSS 2-1 (D) - Orbit

View from above orbital plane
View from above orbital plane
View from above satellite
View from above satellite

Ground track
Ground track

The orbit data is extracted from the following two-line orbital elements,

1 20692U 90050D   17287.78859015 0.00000320  00000-0  78836-4 0    05
2 20692  63.3430 243.3533 0797000  33.1596 326.8404 13.41727871    01
Epoch (UTC): 14 October 2017 18:55:34
Eccentricity: 0.0797000
inclination: 63.3430°
perigee height: 506 km
apogee height: 1699 km
right ascension of ascending node: 243.3533°
argument of perigee: 33.1596°
revolutions per day: 13.41727871
mean anomaly at epoch: 326.8404°
orbit number at epoch: 0

The dashed part of the orbit path shows where the satellite is in the earth's shadow,  

DLR